Погода в Каракоге

Казахстан     54°54′01″N   70°48′55″E
темп.,
°C
ветер,
м/с
пор.,
м/с
влажн.,
%
обл.,
%
осадки,
мм/ч
давл.,
гПа
погр.,
м
2 марта, вт
вт200:00−18сз229785 0.1 101620
03:00−20з239985 0.0 101620
06:00−20з239988 0.1 101633
09:00−18зюз239792 0.1 1016114
12:00−16юз349286 0.1 1016250
15:00−14юз3493100 0.0 1014329
18:00−16ююз3396100 0.1 101468
21:00−19ююз349822 0.0 101442
3 марта, ср
ср300:00−19ююз459820 0.0 101483
03:00−18ююз499768 0.0 1013149
06:00−18ююз5119549 0.0 1013211
09:00−18ююз6129349 0.0 1011295
12:00−15ююз7129374 0.1 1011446
15:00−10ююз71392100 0.3 1010668
18:00−8юз71293100 0.9 1009755
21:00−8юз61493100 0.3 1008677
4 марта, чт
чт400:00−6ююз71493100 0.6 1007620
03:00−4ююз71395100 0.4 1006667
06:00−3ююз71395100 1.1 1005674
09:00−2ююз71396100 0.6 1003724
12:000ююз81398100 1.4 1002918
15:00+1ююз81490100 0.3 1001949
18:000ююз81396100 0.8 1000876
21:00−1юз61395100 0.6 1000603
5 марта, пт
пт500:00−3з61192100 1.3 1002564
03:00−7зюз6139295 0.1 1005459
06:00−12зюз6139173 0.1 1008283
09:00−13юз611920 0.0 1010259
12:00−8юз8158835 0.0 1009644
15:00−7юз91591100 0.6 1007896
18:00−4юз111990100 0.8 10071135
21:00−3юз111989100 0.2 10061080
6 марта, сб
сб600:00−2юз111892100 0.6 10061076
03:00−2юз101693100 0.6 1006939
06:00−2юз91594100 1.1 1007733
09:00−2зсз6995100 1.8 1008587
12:00−4з6108479 1.9 1010742
15:00−5з610810 0.0 1013866
18:00−7зюз49873 0.0 1015239
21:00−12зюз449122 0.0 101562